SCP
0 0 0 0 0 0 0 0 0 0 0 0 0 0 0 0 0 0 0 0 0 0
0 0 0 0 0 0 0 0 -0 0 0 0 0 0 0 0 0 0 0 0 0 0
0 0 0 0 0 0 0 0 0 -0 0 0 0 0 0 0 0 0 0 0 0 0
0 0 0 0 0 0 0 0 0 0 -0 0 0 0 0 0 0 0 0 0 0 0
0 0 0 0 0 0 0 0 0 0 0 0 0 0 0 0 0 0 0 0 0 0
0 0 0 0 0 0 0 0 0 0 0 0 0 0 0 0 0 0 0 0 0 0
0 0 0 0 0 0 0 0 0 0 0 0 0 0 0 0 0 0 0 0 0 0
-0 -0 0 0 0 0 0 0 0 0 0 0 0 0 0 0 0 0 0 0 0 0
-0 -0 0 0 0 0 0 0 0 0 0 0 0 0 0 0 0 0 0 0 0 0
0 0 -0 -0 0 0 0 0 0 0 0 0 0 0 0 0 0 0 0 0 0 0
0 0 -0 -0 0 0 0 0 0 0 0 0 0 0 0 0 0 0 0 0 0 0
0 0 0 -0 -0 0 0 0 0 0 0 0 0 0 0 0 0 0 0 0 0 0
0 0 0 0 -0 0 0 0 0 0 0 0 0 0 0 0 0 0 0 0 0 0
0 0 0 0 0 -0 0 0 0 0 0 0 0 0 0 0 0 0 0 0 0 0
Wind_Speed_500mb
79 79 77 70 62 59 58 57 61 52 58 77 78 94 91 109 104 109 104 114 102 96
81 82 83 78 69 62 57 58 61 66 50 59 53 69 91 91 105 107 112 115 104 95
78 80 82 82 81 71 63 56 55 61 70 60 56 51 61 70 72 90 96 102 94 80
77 77 79 81 83 83 71 64 54 55 57 69 55 54 60 72 70 78 81 81 85 75
75 77 78 80 82 81 83 70 61 57 59 59 63 59 58 66 71 76 83 95 95 96
75 76 78 79 82 82 82 78 69 60 56 57 59 61 66 63 66 73 84 89 91 86
75 78 79 79 80 80 79 82 73 66 58 56 55 54 56 63 66 65 83 86 89 81
78 78 80 80 78 78 77 74 77 67 60 53 53 51 54 60 64 67 74 83 80 78
77 79 80 80 78 76 74 72 74 68 61 53 49 46 47 54 63 67 75 81 81 77
75 77 78 77 75 73 72 71 66 71 59 54 46 41 44 49 63 71 79 80 85 79
72 74 75 76 72 71 68 68 63 69 61 51 47 42 40 44 60 72 80 79 82 76
71 70 72 74 71 69 67 66 60 58 63 49 44 38 33 42 56 65 67 66 66 65
68 68 68 70 68 66 63 65 62 56 59 46 40 31 29 40 52 54 54 52 51 51
64 66 62 64 63 64 63 63 61 54 48 53 37 28 28 36 43 47 49 52 52 49
Wind_Direction_500mb
356 355 352 342 332 331 319 297 283 287 296 275 268 256 258 252 248 243 237 238 237 238
351 353 350 347 338 327 323 310 285 281 281 290 285 270 263 259 254 253 244 242 232 232
347 347 347 346 345 335 322 320 303 282 277 278 285 280 276 269 271 259 249 241 237 232
341 342 342 344 343 342 330 319 317 298 279 270 275 276 277 273 266 256 248 239 233 242
337 337 339 339 341 339 338 324 314 311 289 275 266 273 270 271 266 258 246 234 233 232
335 334 334 335 335 338 336 333 320 314 305 281 271 267 265 272 271 263 249 239 231 223
334 332 331 331 331 333 335 338 327 318 313 296 273 269 268 264 263 263 253 244 233 229
329 328 327 326 327 328 332 333 335 321 317 310 288 272 271 267 262 257 249 241 234 225
327 327 327 323 323 324 327 330 336 328 318 315 307 287 280 271 262 254 245 239 227 219
326 327 327 325 322 322 322 328 330 335 318 316 313 305 288 273 255 249 240 232 221 209
327 327 326 326 325 322 321 326 328 336 323 316 318 314 301 275 246 238 230 222 217 209
327 327 325 325 325 323 323 321 327 331 333 317 312 308 293 255 238 227 223 216 210 205
327 327 326 323 324 323 323 321 325 325 342 320 308 301 277 252 240 228 219 212 206 204
326 324 325 322 323 324 322 320 322 326 334 339 313 297 276 249 234 224 211 203 198 193
Wind_Speed_850mb
79 79 77 70 62 59 58 57 61 52 58 77 78 94 91 109 104 109 104 114 102 96
81 82 83 78 69 62 57 58 61 66 50 59 53 69 91 91 105 107 112 115 104 95
78 80 82 82 81 71 63 56 55 61 70 60 56 51 61 70 72 90 96 102 94 80
77 77 79 81 83 83 71 64 54 55 57 69 55 54 60 72 70 78 81 81 85 75
75 77 78 80 82 81 83 70 61 57 59 59 63 59 58 66 71 76 83 95 95 96
75 76 78 79 82 82 82 78 69 60 56 57 59 61 66 63 66 73 84 89 91 86
75 78 79 79 80 80 79 82 73 66 58 56 55 54 56 63 66 65 83 86 89 81
78 78 80 80 78 78 77 74 77 67 60 53 53 51 54 60 64 67 74 83 80 78
77 79 80 80 78 76 74 72 74 68 61 53 49 46 47 54 63 67 75 81 81 77
75 77 78 77 75 73 72 71 66 71 59 54 46 41 44 49 63 71 79 80 85 79
72 74 75 76 72 71 68 68 63 69 61 51 47 42 40 44 60 72 80 79 82 76
71 70 72 74 71 69 67 66 60 58 63 49 44 38 33 42 56 65 67 66 66 65
68 68 68 70 68 66 63 65 62 56 59 46 40 31 29 40 52 54 54 52 51 51
64 66 62 64 63 64 63 63 61 54 48 53 37 28 28 36 43 47 49 52 52 49
Wind_Direction_850mb
356 355 352 342 332 331 319 297 283 287 296 275 268 256 258 252 248 243 237 238 237 238
351 353 350 347 338 327 323 310 285 281 281 290 285 270 263 259 254 253 244 242 232 232
347 347 347 346 345 335 322 320 303 282 277 278 285 280 276 269 271 259 249 241 237 232
341 342 342 344 343 342 330 319 317 298 279 270 275 276 277 273 266 256 248 239 233 242
337 337 339 339 341 339 338 324 314 311 289 275 266 273 270 271 266 258 246 234 233 232
335 334 334 335 335 338 336 333 320 314 305 281 271 267 265 272 271 263 249 239 231 223
334 332 331 331 331 333 335 338 327 318 313 296 273 269 268 264 263 263 253 244 233 229
329 328 327 326 327 328 332 333 335 321 317 310 288 272 271 267 262 257 249 241 234 225
327 327 327 323 323 324 327 330 336 328 318 315 307 287 280 271 262 254 245 239 227 219
326 327 327 325 322 322 322 328 330 335 318 316 313 305 288 273 255 249 240 232 221 209
327 327 326 326 325 322 321 326 328 336 323 316 318 314 301 275 246 238 230 222 217 209
327 327 325 325 325 323 323 321 327 331 333 317 312 308 293 255 238 227 223 216 210 205
327 327 326 323 324 323 323 321 325 325 342 320 308 301 277 252 240 228 219 212 206 204
326 324 325 322 323 324 322 320 322 326 334 339 313 297 276 249 234 224 211 203 198 193